Location: Cheching
(60.0667°N, 164.2167°W)
Time: 14:29:59
(UTC+00:00)

LilacSat-2 - Pass Details

Date: 25 January 2021
Orbit: 512 x 533 km, 97.5° (Epoch: 05 March)

Event Time Altitude Azimuth Distance (km) Brightness Sun altitude
Rises 05:15:19 0° 219° (SW) 2,643 ? -17.1°
Reaches altitude 10° 05:18:31 10° 249° (WSW) 1,767 ? -17.5°
Maximum altitude 05:20:13 13° 276° (W) 1,612 ? -17.7°
Drops below altitude 10° 05:21:57 10° 303° (WNW) 1,779 ? -17.9°
Sets 05:25:12 0° 333° (NNW) 2,682 ? -18.3°
